AMC-15

Last updated on Sun Jun 21 2026 00:03:03 GMT+0000 (Coordinated Universal Time)

1 28446U 04041A 26171.36017014 -.00000093 00000+0 00000+0 0 9993 2 28446 0.0144 359.6314 0002305 75.3144 218.2288 1.00271527 79338
UTC large
Height (km)
Speed (km/s)
/
Latitude / Longitude
Inclination (degrees)
Orbital Period (minutes)
Azimuth
Elevation
Range (km)
Doppler Factor

Next 0 passes for location: London (51.5072 / 0.1276)

No passes found over London.
AMC-15